TimeIST,TemperatureF,Dew PointF,Humidity,Sea Level PressureIn,VisibilityMPH,Wind Direction,Wind SpeedMPH,Gust SpeedMPH,PrecipitationIn,Events,Conditions,WindDirDegrees,DateUTC
1:00 AM,46,46,100,29.51,,SSE,4.5,,,,,150,2013-10-21 00:00:00
6:00 AM,50.0,50.0,100,29.42,0.2,SE,6.9,-,N/A,Fog,Fog,130,2013-10-21 05:00:00
6:30 AM,48.2,48.2,100,29.42,0.2,SE,6.9,-,N/A,Fog,Fog,130,2013-10-21 05:30:00
7:00 AM,48.2,48.2,100,29.42,0.2,ESE,6.9,-,N/A,Fog,Fog,120,2013-10-21 06:00:00
7:30 AM,48.2,48.2,100,29.39,0.2,ESE,6.9,-,N/A,Fog,Fog,110,2013-10-21 06:30:00
8:00 AM,48.2,48.2,100,29.39,0.2,ESE,6.9,-,N/A,Fog,Fog,110,2013-10-21 07:00:00
8:30 AM,46.4,46.4,100,29.39,0.2,East,8.1,-,N/A,Fog,Fog,100,2013-10-21 07:30:00
9:00 AM,46.4,46.4,100,29.36,0.2,East,9.2,-,N/A,Fog,Fog,100,2013-10-21 08:00:00
9:30 AM,48.2,48.2,100,29.36,0.1,East,9.2,-,N/A,Fog,Fog,100,2013-10-21 08:30:00
10:00 AM,48.2,48.2,100,29.36,0.1,ESE,9.2,-,N/A,Fog,Fog,110,2013-10-21 09:00:00
10:30 AM,48.2,48.2,100,29.33,0.1,East,11.5,-,N/A,Fog,Fog,100,2013-10-21 09:30:00
11:00 AM,48.2,48.2,100,29.33,0.1,East,11.5,-,N/A,Rain,Light Rain,100,2013-10-21 10:00:00
11:30 AM,50.0,50.0,100,29.33,0.3,East,12.7,-,N/A,Rain,Light Rain,100,2013-10-21 10:30:00
12:00 PM,50.0,50.0,100,29.30,0.4,East,13.8,-,N/A,Rain,Light Rain,90,2013-10-21 11:00:00
12:30 PM,50.0,50.0,100,29.30,6.2,ESE,15.0,-,N/A,Rain,Light Rain,110,2013-10-21 11:30:00
1:00 PM,50,50,100,29.29,6,ESE,15.7,,,Rain,Light Rain,110,2013-10-21 12:00:00
1:00 PM,50.0,50.0,100,29.27,5.6,ESE,15.0,-,N/A,Rain,Light Rain,110,2013-10-21 12:00:00
1:30 PM,51.8,50.0,94,29.27,5.6,East,16.1,-,N/A,Rain,Light Rain,100,2013-10-21 12:30:00
2:00 PM,51.8,50.0,94,29.24,6.2,East,15.0,-,N/A,Rain,Light Rain,90,2013-10-21 13:00:00
2:30 PM,51.8,50.0,94,29.24,5.0,East,15.0,-,N/A,Rain,Light Rain,90,2013-10-21 13:30:00
3:00 PM,51.8,51.8,100,29.24,3.1,ENE,13.8,-,N/A,Rain,Light Rain,70,2013-10-21 14:00:00
3:30 PM,51.8,51.8,100,29.21,2.5,East,13.8,-,N/A,Rain,Light Rain,80,2013-10-21 14:30:00
4:00 PM,51.8,51.8,100,29.21,1.9,East,13.8,-,N/A,Rain,Light Rain,90,2013-10-21 15:00:00
4:30 PM,51.8,51.8,100,29.21,1.1,ESE,11.5,-,N/A,Rain,Light Rain,110,2013-10-21 15:30:00
5:00 PM,51.8,51.8,100,29.18,0.4,ESE,12.7,-,N/A,Fog-Rain,Light Rain,120,2013-10-21 16:00:00
5:30 PM,51.8,51.8,100,29.18,0.2,ESE,11.5,-,N/A,Fog,Light Drizzle,120,2013-10-21 16:30:00
6:00 PM,53.6,53.6,100,29.18,0.2,SSE,9.2,-,N/A,,Light Drizzle,150,2013-10-21 17:00:00
7:00 PM,55,55,99,29.19,0,SE,8.9,,,Fog,Partial Fog,140,2013-10-21 18:00:00
7:00 PM,55.4,55.4,100,29.18,0.1,SE,8.1,-,N/A,Fog,Fog,140,2013-10-21 18:00:00